Regional Weather Roundup
Issued by NWS

Home | Current Version | Previous Version | Graphics & Text | Print | Product List | Glossary On
Versions: 1 2 3 4 5 6 7 8 9 10 11 12 13 14 15 16 17 18 19 20 21 22 23 24 25 26 27 28 29 30 31 32 33 34 35 36 37 38 39 40 41 42 43 44 45 46 47 48 49 50
000
ASUS43 KIND 042059
RWRIN

WEATHER ROUNDUP FOR INDIANA
NATIONAL WEATHER SERVICE INDIANAPOLIS IN
500 PM EDT SAT JUL 04 2015

NOTE: "FAIR" INDICATES FEW OR NO CLOUDS BELOW 12,000 FEET WITH NO
SIGNIFICANT WEATHER AND/OR OBSTRUCTIONS TO VISIBILITY.

* - STATION DOES NOT REPORT WEATHER SUCH AS PRECIPITATION OR FOG.

+ - STATION NOT QUALITY CONTROLLED BY THE NATIONAL WEATHER SERVICE.
    USE DATA WITH CAUTION...ESPECIALLY DEWPOINT AND RELATIVE
    HUMIDITY OBSERVATIONS.

INZ001>003-010>013-019-020-042200-
NORTHWEST INDIANA

CITY           SKY/WX    TMP DP  RH WIND       PRES   REMARKS
GARY /AIRPORT/ MOSUNNY  N/A N/A N/A NE6       30.00F
RENSSELAER +   PTSUNNY   79  59  50 SW3       30.01S

$$

LMZ046-743>745-042200-
SOUTHERN LAKE MICHIGAN

STATION/POSITION TIME  TEMP    WIND        PRES    WAVE
                       AIR SEA DIR/SP/G            HT
                 (UTC) (F)     (DEG/KT/KT) (MB)    (FT)
BURNS HARBOR     2000   71      70/  9/ 10 1016.6S
MICHIGAN CITY    2000   67      20/  6/  7   N/A
5NW MICH CITY    2000   68 67   70/  6/  6   N/A     0

$$

INZ004-005-014>016-021>024-042200-
NORTH CENTRAL INDIANA

CITY           SKY/WX    TMP DP  RH WIND       PRES   REMARKS
GOSHEN         SUNNY     77  60  55 VRB3      30.01S
SOUTH BEND     SUNNY     80  58  46 NW5       30.01F

$$

INZ006>009-017-018-025>027-042200-
NORTHEAST INDIANA

CITY           SKY/WX    TMP DP  RH WIND       PRES   REMARKS
ANGOLA *+        N/A     81  73  78 W5        30.02S
FORT WAYNE     CLOUDY    80  55  42 NW6       30.02S

$$

INZ028-029-035-036-043>045-051>053-042200-
WEST CENTRAL INDIANA

CITY           SKY/WX    TMP DP  RH WIND       PRES   REMARKS
CRAWFORDSVL +  SUNNY     77  53  43 N3        30.01F
GREENCASTLE +  PTSUNNY   77  55  47 NW3       30.01F
LAFAYETTE      SUNNY     79  57  46 NW3       30.00F
TERRE HAUTE    MOSUNNY   81  61  50 CALM      30.00F

$$

INZ030>032-037>040-046>048-054>057-064-065-042200-
CENTRAL INDIANA

CITY           SKY/WX    TMP DP  RH WIND       PRES   REMARKS
GREENWOOD *+   MOSUNNY   79  54  41 W5        30.01F
INDIANAPOLIS   MOSUNNY   81  58  45 NW6       29.99F
-EAGLE CREEK   SUNNY     80  58  46 N5        30.00F
KOKOMO *+      SUNNY     81  59  47 N6        30.01S
MT COMFORT *+  SUNNY     81  41  24 CALM      30.01F
SHELBYVILLE    MOSUNNY   81  62  52 W3        30.00F

$$

INZ033-034-041-042-049-050-058-059-042200-
EAST CENTRAL INDIANA

CITY           SKY/WX    TMP DP  RH WIND       PRES   REMARKS
MUNCIE         PTSUNNY   80  59  48 N6        30.02S

$$

INZ060-061-067>069-081>083-085>088-042200-
SOUTHWEST INDIANA

CITY           SKY/WX    TMP DP  RH WIND       PRES   REMARKS
EVANSVILLE     PTSUNNY   82  65  56 NE5       29.97F
HUNTINGBURG *+ PTSUNNY   81  66  61 NE6       29.98F

$$

INZ062-063-066-070>080-084-089>092-042200-
SOUTH CENTRAL AND SOUTHEAST INDIANA

CITY           SKY/WX    TMP DP  RH WIND       PRES   REMARKS
BLOOMINGTON    SUNNY     81  63  54 CALM      30.00F
MADISON *+     MOSUNNY   81  61  50 CALM      30.01F
SEYMOUR +      PTSUNNY   81  64  57 CALM      29.99F

$$




USA.gov is the U.S. government's official web portal to all federal, state and local government web resources and services.